カタログに戻る

NAVSTAR 14

USA 38

運用中ナビゲーションMEO
NORAD 20061·PAYLOAD·🇺🇸 United States

打ち上げ Jun 10, 1989 から Cape Canaveral Space Force Station

Loading…

次のパス (今後24時間)

TLE

最新Source: Space-Track

元期: Sep 14, 2026, 07:35 UTC

1 20061U 89044A   26257.31641782  .00000011  00000-0  00000-0 0  9990
2 20061  53.2666 236.4606 0028394 214.2611 144.4878  1.88858301263468

AllMySatでNAVSTAR 14をリアルタイム追跡

Download on the App Store